Location: Joffre
(52.3362°N, 113.5373°W)
Time: 12:46:16
(UTC+00:00)

Envisat - Pass Details

Date: 04 December 2021
Orbit: 764 x 766 km, 98.2° (Epoch: 23 January)

Event Time Altitude Azimuth Distance (km) Brightness Sun altitude
Rises 12:10:43 0° 18° (NNE) 3,248 6.5 -28.6°
Reaches altitude 10° 12:13:09 10° 25° (NNE) 2,316 5.7 -28.3°
Maximum altitude 12:18:02 44° 98° (E) 1,058 4.1 -27.5°
Drops below altitude 10° 12:22:52 10° 170° (S) 2,298 5.6 -26.8°
Sets 12:25:15 0° 177° (S) 3,220 6.3 -26.4°
